Find Starlink 32906

NORAD ID: 63080 Int'l Des: 2025-037 Owner: SPXS Country: US Constellation: starlink operational
LEOCIRCULAR

Live Position

Loading 3D Globe...

About Starlink 32906

Description loading...

Upcoming Passes

Passes for default location (London). Set your location on the main map for personalized predictions.

Altitude History

Loading altitude history...

Two-Line Element Set

1 63080U 25037D 26122.40653990 -.00001046 00000-0 -79906-4 0 9991
2 63080 70.0020 219.1967 0003411 268.2785 91.7984 14.98325304 66649
Epoch: May 2, 2026 • Age: 8 hours

Current Status

Altitude 595.0 km
Velocity 7.56 km/s
Sub-Earth Point -68.95°S, 12.14°W
Launch Date Feb 23, 2025
Age 1.1 years
Type internet

Technical Details

Classification Payload
Mass 730.00 kg
Dry Mass 700.00 kg
Total Mass 730.00 kg
Length 0.30 m
Diameter 4.10 m
Span 29.00 m
Shape Box + pan
Manufacturer SPXS
Bus Type Starlink V2M
Phase Status In Orbit
Owner/State SPXS/US

Most Searched